IW1RCO-13 Weather Reports


time (UTC)temp
C
wind
direction
speed
KPH
gust
KPH
rain 1hr
cm
rain 24hr
cm
rain mn
cm
humidity
%
barometer
mb
20260507223900 11 0.0 0.0 0.00 0.00 0.00 73 1014.0
20260507220405 11 0.0 0.0 0.00 0.00 0.00 76 1014.2
20260507215902 11 0.0 0.0 0.00 0.00 0.00 75 1014.0
20260507215405 11 0.0 0.0 0.00 0.00 0.00 75 1013.9
20260507214902 11 0.0 0.0 0.00 0.00 0.00 76 1013.3
20260507214405 11 0.0 0.0 0.00 0.00 0.00 76 1013.5
20260507213901 11 0.0 0.0 0.00 0.00 0.00 76 1013.7
20260507213405 11 0.0 0.0 0.00 0.00 0.00 76 1014.0
20260507212901 11 0.0 0.0 0.00 0.00 0.00 76 1013.1
20260507212404 11 0.0 0.0 0.00 0.00 0.00 76 1014.2
20260507211901 11 0.0 0.0 0.00 0.00 0.00 76 1013.9
20260507211404 11 0.0 0.0 0.00 0.00 0.00 77 1013.1
20260507210901 10 0.0 0.0 0.00 0.00 0.00 77 1013.1
20260507210404 10 0.0 0.0 0.00 0.00 0.00 79 1014.0
20260507205900 10 0.0 0.0 0.00 0.00 0.00 83 1013.3
20260507205404 10 0.0 0.0 0.00 0.00 0.00 83 1013.5
20260507204900 10 0.0 0.0 0.00 0.00 0.00 82 1013.7
20260507204403 10 0.0 0.0 0.00 0.00 0.00 82 1013.1
20260507203900 10 0.0 0.0 0.00 0.00 0.00 79 1013.4
20260507203403 11 0.0 0.0 0.00 0.00 0.00 80 1013.4
20260507202900 11 0.0 0.0 0.00 0.00 0.00 79 1013.5
20260507202403 11 0.0 0.0 0.00 0.00 0.00 80 1013.1
20260507201900 11 0.0 0.0 0.00 0.00 0.00 78 1013.3
20260507201403 11 0.0 0.0 0.00 0.00 0.00 77 1013.1
20260507200859 11 0.0 0.0 0.00 0.00 0.00 80 1012.3
20260507200403 11 0.0 0.0 0.00 0.00 0.00 79 1012.9
20260507195859 11 0.0 0.0 0.00 0.00 0.00 84 1012.4
20260507195402 11 0.0 0.0 0.00 0.00 0.00 80 1013.0
20260507194906 11 0.0 0.0 0.00 0.00 0.00 83 1012.2
20260507194402 10 0.0 0.0 0.00 0.00 0.00 85 1012.5
20260507193905 10 0.0 0.0 0.00 0.00 0.00 83 1012.1
20260507193402 11 0.0 0.0 0.00 0.00 0.00 83 1012.2
20260507192905 11 0.0 0.0 0.00 0.00 0.00 83 1012.2
20260507192402 11 0.0 0.0 0.00 0.00 0.00 84 1012.2
20260507191905 11 0.0 0.0 0.00 0.00 0.00 86 1012.7
20260507191401 11 0.0 0.0 0.00 0.00 0.00 86 1012.2
20260507190905 10 0.0 0.0 0.00 0.00 0.00 89 1012.4
20260507190402 10 0.0 0.0 0.00 0.00 0.00 89 1012.6
20260507185904 10 0.0 0.0 0.00 0.00 0.00 91 1011.9
20260507185401 10 0.0 0.0 0.00 0.00 0.00 92 1012.8
20260507184904 11 0.0 0.0 0.00 0.00 0.00 92 1012.3
20260507184401 11 0.0 0.0 0.00 0.00 0.00 91 1012.2
20260507180400 12 0.0 0.0 0.00 0.00 0.00 88 1012.5
20260507175903 12 0.0 0.0 0.00 0.00 0.00 88 1012.3
20260507175400 12 0.0 0.0 0.00 0.00 0.00 87 1012.4
20260507174903 12 0.0 0.0 0.00 0.00 0.00 87 1012.2
20260507174359 13 0.0 0.0 0.00 0.00 0.00 85 1012.1
20260507173903 13 0.0 0.0 0.00 0.00 0.00 86 1012.6
20260507173359 13 0.0 0.0 0.00 0.00 0.00 85 1012.0
20260507172903 13 0.0 0.0 0.00 0.00 0.00 85 1012.1
20260507172359 13 0.0 0.0 0.00 0.00 0.00 85 1012.1
20260507171902 13 0.0 0.0 0.00 0.00 0.00 85 1012.2
20260507171406 13 0.0 0.0 0.00 0.00 0.00 85 1012.3
20260507170902 13 0.0 0.0 0.00 0.00 0.00 84 1011.9
20260507170405 13 0.0 0.0 0.00 0.00 0.00 81 1012.2
20260507165902 13 0.0 0.0 0.00 0.00 0.00 80 1012.0
20260507165405 13 0.0 0.0 0.00 0.00 0.00 80 1012.1
20260507164902 13 0.0 0.0 0.00 0.00 0.00 81 1012.5
20260507164405 14 0.0 0.0 0.00 0.00 0.00 79 1012.3
20260507163902 15 0.0 0.0 0.00 0.00 0.00 76 1012.1
20260507163405 16 0.0 0.0 0.00 0.00 0.00 72 1012.0
20260507162901 16 0.0 0.0 0.00 0.00 0.00 73 1012.1
20260507162405 16 0.0 0.0 0.00 0.00 0.00 70 1011.6
20260507161901 16 0.0 0.0 0.00 0.00 0.00 73 1011.9
20260507161404 15 0.0 0.0 0.00 0.00 0.00 73 1011.6
20260507160901 14 0.0 0.0 0.00 0.00 0.00 79 1012.3
20260507160404 13 0.0 0.0 0.00 0.00 0.00 81 1012.3
20260507155901 13 0.0 0.0 0.00 0.00 0.00 79 1012.2
20260507155404 13 0.0 0.0 0.00 0.00 0.00 81 1012.0
20260507154901 13 0.0 0.0 0.00 0.00 0.00 80 1012.2
20260507154404 15 0.0 0.0 0.00 0.00 0.00 76 1012.1
20260507153900 17 0.0 0.0 0.00 0.00 0.00 71 1012.2
20260507153403 16 0.0 0.0 0.00 0.00 0.00 73 1011.8
20260507152900 14 0.0 0.0 0.00 0.00 0.00 78 1012.1
20260507152403 14 0.0 0.0 0.00 0.00 0.00 79 1011.9
20260507151900 13 0.0 0.0 0.00 0.00 0.00 82 1012.0
20260507151403 14 0.0 0.0 0.00 0.00 0.00 81 1012.2
20260507150859 15 0.0 0.0 0.00 0.00 0.00 78 1012.2
20260507150403 16 0.0 0.0 0.00 0.00 0.00 73 1012.0
20260507145859 16 0.0 0.0 0.00 0.00 0.00 74 1012.2
20260507145403 15 0.0 0.0 0.00 0.00 0.00 77 1012.0
20260507144859 16 0.0 0.0 0.00 0.00 0.00 73 1012.2
20260507144402 16 0.0 0.0 0.00 0.00 0.00 78 1012.2
20260507143906 14 0.0 0.0 0.00 0.00 0.00 81 1012.5
20260507140403 14 0.0 0.0 0.00 0.00 0.00 82 1012.2
20260507135905 14 0.0 0.0 0.00 0.00 0.00 81 1012.1
20260507135401 15 0.0 0.0 0.00 0.00 0.00 78 1012.2
20260507134904 15 0.0 0.0 0.00 0.00 0.00 74 1012.0
20260507134401 17 0.0 0.0 0.00 0.00 0.00 68 1012.3
20260507133904 15 0.0 0.0 0.00 0.00 0.00 73 1012.7
20260507133401 14 0.0 0.0 0.00 0.00 0.00 77 1012.3
20260507132904 14 0.0 0.0 0.00 0.00 0.00 80 1012.0
20260507132400 15 0.0 0.0 0.00 0.00 0.00 77 1013.1
20260507131905 16 0.0 0.0 0.00 0.00 0.00 73 1012.1
20260507131400 15 0.0 0.0 0.00 0.00 0.00 72 1012.3
20260507130904 15 0.0 0.0 0.00 0.00 0.00 75 1011.8
20260507130400 15 0.0 0.0 0.00 0.00 0.00 72 1011.9
20260507125903 16 0.0 0.0 0.00 0.00 0.00 71 1012.2
20260507125400 17 0.0 0.0 0.00 0.00 0.00 65 1012.2
20260507124903 18 0.0 0.0 0.00 0.00 0.00 62 1012.3
20260507124400 18 0.0 0.0 0.00 0.00 0.00 63 1012.1
20260507123903 17 0.0 0.0 0.00 0.00 0.00 67 1011.9
20260507123359 17 0.0 0.0 0.00 0.00 0.00 68 1012.5
20260507122903 16 0.0 0.0 0.00 0.00 0.00 69 1012.1
20260507122359 17 0.0 0.0 0.00 0.00 0.00 65 1011.8
20260507121359 17 0.0 0.0 0.00 0.00 0.00 68 1012.3
20260507120902 17 0.0 0.0 0.00 0.00 0.00 64 1012.3
20260507120406 18 0.0 0.0 0.00 0.00 0.00 61 1012.2
20260507115902 18 0.0 0.0 0.00 0.00 0.00 65 1012.3
20260507115405 17 0.0 0.0 0.00 0.00 0.00 69 1012.2
20260507114902 15 0.0 0.0 0.00 0.00 0.00 73 1012.0
20260507114405 15 0.0 0.0 0.00 0.00 0.00 76 1012.4
20260507113901 15 0.0 0.0 0.00 0.00 0.00 74 1012.0
20260507113405 15 0.0 0.0 0.00 0.00 0.00 76 1012.3
20260507112901 15 0.0 0.0 0.00 0.00 0.00 74 1012.4
20260507112404 16 0.0 0.0 0.00 0.00 0.00 71 1012.2
20260507111901 16 0.0 0.0 0.00 0.00 0.00 70 1012.2
20260507111404 16 0.0 0.0 0.00 0.00 0.00 66 1011.9
20260507110901 17 0.0 0.0 0.00 0.00 0.00 65 1012.0
20260507110404 16 0.0 0.0 0.00 0.00 0.00 69 1012.3
20260507105901 16 0.0 0.0 0.00 0.00 0.00 71 1012.1
20260507105404 15 0.0 0.0 0.00 0.00 0.00 71 1012.5
20260507104900 16 0.0 0.0 0.00 0.00 0.00 68 1012.3
20260507104404 16 0.0 0.0 0.00 0.00 0.00 68 1012.2
20260507103900 17 0.0 0.0 0.00 0.00 0.00 76 1012.1
20260507100403 15 0.0 0.0 0.00 0.00 0.00 75 1011.9
20260507095859 16 0.0 0.0 0.00 0.00 0.00 71 1012.0
20260507095403 15 0.0 0.0 0.00 0.00 0.00 71 1012.8
20260507094859 15 0.0 0.0 0.00 0.00 0.00 75 1011.9
20260507094403 14 0.0 0.0 0.00 0.00 0.00 77 1012.0
20260507093859 13 0.0 0.0 0.00 0.00 0.00 78 1012.3
20260507093402 14 0.0 0.0 0.00 0.00 0.00 80 1012.6
20260507092906 13 0.0 0.0 0.00 0.00 0.00 81 1012.6
20260507092402 13 0.0 0.0 0.00 0.00 0.00 79 1012.1
20260507091905 14 0.0 0.0 0.00 0.00 0.00 74 1012.2
20260507091402 14 0.0 0.0 0.00 0.00 0.00 76 1012.6
20260507090905 14 0.0 0.0 0.00 0.00 0.00 77 1012.3
20260507090402 15 0.0 0.0 0.00 0.00 0.00 77 1012.2
20260507085905 15 0.0 0.0 0.00 0.00 0.00 76 1012.3
20260507085401 15 0.0 0.0 0.00 0.00 0.00 76 1012.5
20260507084905 15 0.0 0.0 0.00 0.00 0.00 79 1012.5
20260507084401 14 0.0 0.0 0.00 0.00 0.00 78 1012.3
20260507083904 13 0.0 0.0 0.00 0.00 0.00 77 1012.1
20260507083401 13 0.0 0.0 0.00 0.00 0.00 79 1011.9
20260507082904 12 0.0 0.0 0.00 0.00 0.00 82 1012.1
20260507082401 12 0.0 0.0 0.00 0.00 0.00 80 1012.0
20260507081904 13 0.0 0.0 0.00 0.00 0.00 80 1012.3
20260507081400 13 0.0 0.0 0.00 0.00 0.00 80 1012.3
20260507080904 13 0.0 0.0 0.00 0.00 0.00 81 1012.0
20260507080400 13 0.0 0.0 0.00 0.00 0.00 79 1011.8
20260507075904 12 0.0 0.0 0.00 0.00 0.00 78 1011.7
20260507075400 12 0.0 0.0 0.00 0.00 0.00 85 1012.0
20260507074903 12 0.0 0.0 0.00 0.00 0.00 85 1012.0
20260507074400 12 0.0 0.0 0.00 0.00 0.00 85 1012.3
20260507073903 12 0.0 0.0 0.00 0.00 0.00 86 1012.2
20260507073400 12 0.0 0.0 0.00 0.00 0.00 82 1011.7
20260507072903 12 0.0 0.0 0.00 0.00 0.00 82 1012.0
20260507072359 12 0.0 0.0 0.00 0.00 0.00 86 1012.0
20260507071903 11 0.0 0.0 0.00 0.00 0.00 87 1012.0
20260507071359 12 0.0 0.0 0.00 0.00 0.00 85 1012.1
20260507070903 12 0.0 0.0 0.00 0.00 0.00 84 1011.4
20260507070359 12 0.0 0.0 0.00 0.00 0.00 83 1012.0
20260507065902 11 0.0 0.0 0.00 0.00 0.00 84 1011.6
20260507065406 12 0.0 0.0 0.00 0.00 0.00 82 1012.0
20260507064902 12 0.0 0.0 0.00 0.00 0.00 84 1011.7
20260507064405 12 0.0 0.0 0.00 0.00 0.00 83 1012.0
20260507063902 12 0.0 0.0 0.00 0.00 0.00 84 1011.6
20260507060404 11 0.0 0.0 0.00 0.00 0.00 87 1011.3
20260507055901 10 0.0 0.0 0.00 0.00 0.00 87 1011.2
20260507055404 10 0.0 0.0 0.00 0.00 0.00 89 1011.3
20260507054901 10 0.0 0.0 0.00 0.00 0.00 89 1011.4
20260507054404 10 0.0 0.0 0.00 0.00 0.00 89 1011.1
20260507053900 10 0.0 0.0 0.00 0.00 0.00 89 1010.3
20260507053404 10 0.0 0.0 0.00 0.00 0.00 89 1010.3
20260507052900 10 0.0 0.0 0.00 0.00 0.00 90 1011.3
20260507052403 10 0.0 0.0 0.00 0.00 0.00 90 1011.3
20260507051900 10 0.0 0.0 0.00 0.00 0.00 90 1010.3
20260507051403 10 0.0 0.0 0.00 0.00 0.00 90 1011.0
20260507050900 10 0.0 0.0 0.00 0.00 0.00 89 1010.7
20260507050403 10 0.0 0.0 0.00 0.00 0.00 89 1010.4
20260507045859 9 0.0 0.0 0.00 0.00 0.00 89 1010.7
20260507045403 9 0.0 0.0 0.00 0.00 0.00 89 1010.1
20260507044859 9 0.0 0.0 0.00 0.00 0.00 89 1010.5
20260507044403 9 0.0 0.0 0.00 0.00 0.00 90 1009.6
20260507043859 9 0.0 0.0 0.00 0.00 0.00 90 1010.7
20260507043402 8 0.0 0.0 0.00 0.00 0.00 92 1010.4
20260507042402 8 0.0 0.0 0.00 0.00 0.00 93 1010.2
20260507041859 8 0.0 0.0 0.00 0.00 0.00 92 1010.5
20260507041402 8 0.0 0.0 0.00 0.00 0.00 92 1011.1
20260507040905 8 0.0 0.0 0.00 0.00 0.00 93 1011.1
20260507040402 8 0.0 0.0 0.00 0.00 0.00 94 1011.0
20260507035905 8 0.0 0.0 0.00 0.00 0.00 94 1011.1
20260507035402 8 0.0 0.0 0.00 0.00 0.00 94 1010.5
20260507034905 8 0.0 0.0 0.00 0.00 0.00 94 1010.9
20260507034401 8 0.0 0.0 0.00 0.00 0.00 94 1010.8
20260507033905 8 0.0 0.0 0.00 0.00 0.00 95 1010.7
20260507033401 8 0.0 0.0 0.00 0.00 0.00 95 1011.3
20260507032905 8 0.0 0.0 0.00 0.00 0.00 94 1010.9
20260507032401 8 0.0 0.0 0.00 0.00 0.00 94 1010.7
20260507031904 8 0.0 0.0 0.00 0.00 0.00 94 1010.5
20260507031401 8 0.0 0.0 0.00 0.00 0.00 94 1011.1
20260507030904 8 0.0 0.0 0.00 0.00 0.00 94 1010.5
20260507030401 8 0.0 0.0 0.00 0.00 0.00 94 1011.7
20260507025904 8 0.0 0.0 0.00 0.00 0.00 93 1010.7
20260507025400 8 0.0 0.0 0.00 0.00 0.00 94 1011.0
20260507024904 8 0.0 0.0 0.00 0.00 0.00 93 1010.1
20260507024400 8 0.0 0.0 0.00 0.00 0.00 92 1011.1
20260507020400 8 0.0 0.0 0.00 0.00 0.00 95 1010.7
20260507015903 8 0.0 0.0 0.00 0.00 0.00 95 1011.3
20260507015400 8 0.0 0.0 0.00 0.00 0.00 95 1011.1
20260507014903 8 0.0 0.0 0.00 0.00 0.00 95 1010.4
20260507014400 9 0.0 0.0 0.00 0.00 0.00 94 1010.7
20260507013359 9 0.0 0.0 0.00 0.00 0.00 94 1011.1
20260507012902 10 0.0 0.0 0.00 0.00 0.00 92 1010.8
20260507012359 10 0.0 0.0 0.00 0.00 0.00 92 1010.8
20260507011902 10 0.0 0.0 0.00 0.00 0.00 92 1011.2
20260507011405 10 0.0 0.0 0.00 0.00 0.00 93 1011.6
20260507010902 10 0.0 0.0 0.00 0.00 0.00 93 1011.0
20260507010405 10 0.0 0.0 0.00 0.00 0.00 93 1010.8
20260507005902 10 0.0 0.0 0.00 0.00 0.00 94 1010.8
20260507005405 10 0.0 0.0 0.00 0.00 0.00 94 1010.4
20260507004901 10 0.0 0.0 0.00 0.00 0.00 94 1011.6
20260507004405 10 0.0 0.0 0.00 0.00 0.00 93 1010.7
20260507003901 9 0.0 0.0 0.00 0.00 0.00 93 1010.2
20260507003405 9 0.0 0.0 0.00 0.00 0.00 94 1010.6
20260507002901 10 0.0 0.0 0.00 0.00 0.00 94 1010.9
20260507002404 10 0.0 0.0 0.00 0.00 0.00 94 1010.7
20260507001901 10 0.0 0.0 0.00 0.00 0.00 94 1010.5
20260507001404 10 0.0 0.0 0.00 0.00 0.00 93 1011.2
20260507000901 10 0.0 0.0 0.00 0.00 0.00 93 1011.0
20260507000405 10 0.0 0.0 0.00 0.00 0.00 93 1010.4
20260506235901 10 0.0 0.0 0.00 0.00 0.00 94 1011.7
20260506235404 10 0.0 0.0 0.00 0.00 0.00 93 1010.7
20260506234900 10 0.0 0.0 0.00 0.00 0.00 94 1011.3
20260506234404 10 0.0 0.0 0.00 0.00 0.00 94 1010.8
20260506233900 10 0.0 0.0 0.00 0.00 0.00 93 1011.0
20260506233404 10 0.0 0.0 0.00 0.00 0.00 92 1010.9
20260506232900 10 0.0 0.0 0.00 0.00 0.00 91 1011.3
20260506232403 10 0.0 0.0 0.00 0.00 0.00 93 1011.4
20260506231900 10 0.0 0.0 0.00 0.00 0.00 93 1011.0
20260506231403 10 0.0 0.0 0.00 0.00 0.00 93 1011.6
20260506230859 10 0.0 0.0 0.00 0.00 0.00 93 1010.8
20260506230403 10 0.0 0.0 0.00 0.00 0.00 95 1010.7
20260506225859 9 0.0 0.0 0.00 0.00 0.00 95 1010.7
20260506225402 9 0.0 0.0 0.00 0.00 0.00 95 1011.2
20260506224859 10 0.0 0.0 0.00 0.00 0.00 95 1011.0
20260506224402 10 0.0 0.0 0.00 0.00 0.00 95 1011.1